Location: Unspecified
(0.0000°N, 0.0000°E)
Time: 12:10:30
(UTC+00:00)

COSMOS 2491 DEB - Visible Passes

Search period start: 11 February 2026 00:00
Search period end: 21 February 2026 00:00
Orbit: 1313 x 1464 km, 82.5° (Epoch: 5 February)

Date Brightness Start Highest point End Pass type
(mag) Time Alt. Az. Time Alt. Az. Time Alt. Az.
11 Feb ? 02:41:34 10° SSE 02:45:02 25° SE 02:45:02 25° SE visible
11 Feb ? 04:37:07 10° SW 04:38:31 14° SW 04:38:31 14° SW visible
12 Feb ? 03:17:38 10° S 03:20:18 23° S 03:20:18 23° S visible
13 Feb ? 03:55:06 10° SSW 03:55:44 12° SSW 03:55:44 12° SSW visible
14 Feb ? 02:37:16 10° S 02:37:48 12° SSE 02:37:48 12° SSE visible
